CZ-6A DEB, 56247

Orbit data source: Space-Track

CZ-6A DEB, 56247 is space debris in SSO originally from a launch on Fri, 11 Nov 2022 UTC launched from the Taiyaun Space Center, China (TSC). Debris objects in space refer to the collection of defunct objects orbiting the Earth. Examples of debris include non-operational satellites, rocket bodies, and fragments generated from explosions, collisions, or faulty payload assembly.

Loading next visibility...
Identifier
56247, 2022-151ABP
Orbit
SSO
Country
Flag of CNCN / PRC
Related business
Manufacturer
SAST
Mission
Spacecraft
Bus & Motor
Unknown
Mass
Unknown
Launch date (UTC)
2022-11-11 (4 years ago)
Launch vehicle
Unknown
Launch site
Taiyaun Space Center, China (TSC)
Object type
Payload
Rocket body
Debris
Shape & HBR
Unknown shape, 0.1 m
Radar Cross Section
Medium (>0.1 m² and <1 m²)

Expand to show TLE details & history
Last TLE update: 17 hours ago

TLE from 17 hours ago
0 CZ-6A DEB
1 56247U 22151ABP 26236.11570234  .00005385  00000-0  75212-3 0  9998
2 56247  98.4334 293.1795 0111324 350.9149   9.0041 14.73880646187801
Epoch: 2026-08-24T02:46Z
TLE epoch observation values (Epoch: 2026-08-24T02:46:36.682Z)
Latitude
-0.00006°
Longitude
-80.87536°
Altitude
574.448 km
Speed
7.615 km/s
True Right ascension
19h 32m 43s
True Declination
0° 00' 00"
Sunlit
Object was in full shadow at epoch
Visualization orbit readout
Latitude
Unknown
Longitude
Unknown
Altitude
Unknown
Speed
Unknown
Apparent Right ascension
Unknown
Apparent Declination
Unknown
Sunlit
N/A
Visualization observer readout
Local Sidereal Time
10:51:37
Azimuth
Unknown
Elevation
Unknown
Doppler factor
Unknown
Orbital elements
Apogee altitude
723.973 km
Perigee altitude
567.587 km
Semi-major axis
7,023.917 km
Eccentricity
0.01113
Inclination
98.4334°
RAAN
293.1795°
Arg. of periapsis
350.9149°
True anomaly
9.20653°
Mean anomaly
9.0041°
Eccentric anomaly
9.10503°
Mean motion
3.68701 °/min
Orbital period
97.64 mins
BSTAR
0.00075212
Loading maneuver chart data...
Computing Atmospheric mass density...
Loading historical data...
Loading historical data...
Loading historical data...
Loading historical data...
Loading historical data...
Loading historical data...
Loading historical data...

Documentation

Showing up to 5 results
|